CEF4 Weather Reports


Display with metric or nautical units.
time (UTC)temp
F
wind
direction
speed
MPH
gust
MPH
rain 1hr
in
rain 24hr
in
rain mn
in
humidity
%
barometer
mb
20260504045549 51 340 6.0 14.0 5.16 0.00 0.00
20260504044249 52 284 5.0 14.0 5.16 0.00 0.00
20260504042949 52 288 5.0 12.0 5.16 0.00 0.00
20260504041649 52 285 8.0 15.0 5.16 0.00 0.00
20260504040350 53 287 7.0 19.0 5.16 0.00 0.00
20260504035050 53 347 12.0 23.0 5.16 0.00 0.00
20260504033749 54 345 8.0 18.0 5.16 0.00 0.00
20260504032449 54 6 10.0 19.0 5.16 0.00 0.00
20260504031149 55 335 12.0 25.0 5.16 0.00 0.00
20260504025849 55 352 12.0 20.0 5.16 0.00 0.00
20260504024549 56 333 12.0 22.0 5.16 0.00 0.00
20260504023249 56 352 12.0 22.0 5.16 0.00 0.00
20260504021949 57 3 8.0 13.0 5.16 0.00 0.00
20260504020649 57 359 12.0 19.0 5.16 0.00 0.00
20260504015349 58 353 15.0 26.0 5.16 0.00 0.00
20260504014049 59 15 14.0 23.0 5.16 0.00 0.00
20260504012749 59 359 16.0 29.0 5.16 0.00 0.00
20260504011449 60 8 13.0 25.0 5.16 0.00 0.00
20260504010149 63 339 14.0 24.0 5.16 0.00 0.00
20260504004849 63 343 11.0 28.0 5.16 0.00 0.00
20260504003549 64 347 10.0 24.0 5.16 0.00 0.00
20260504002249 64 342 12.0 25.0 5.16 0.00 0.00
20260504000949 66 311 8.0 20.0 5.16 0.00 0.00
20260503235649 67 326 7.0 16.0 5.16 0.00 0.00
20260503234349 66 357 6.0 14.0 5.16 0.00 0.00
20260503233049 66 290 7.0 16.0 5.16 0.00 0.00
20260503231749 66 349 7.0 20.0 5.16 0.00 0.00
20260503230449 67 27 7.0 14.0 5.16 0.00 0.00
20260503225149 66 290 6.0 22.0 5.16 0.00 0.00
20260503223849 67 280 7.0 19.0 5.16 0.00 0.00
20260503222549 67 336 8.0 20.0 5.16 0.00 0.00
20260503221249 66 342 10.0 22.0 5.16 0.00 0.00
20260503215949 68 333 11.0 23.0 5.16 0.00 0.00
20260503214649 70 281 8.0 17.0 5.16 0.00 0.00
20260503213349 70 0 7.0 15.0 5.16 0.00 0.00
20260503212049 70 0 8.0 16.0 5.16 0.00 0.00
20260503210749 70 21 7.0 17.0 5.16 0.00 0.00
20260503205449 69 352 9.0 20.0 5.16 0.00 0.00
20260503204149 69 278 7.0 16.0 5.16 0.00 0.00
20260503201549 68 298 7.0 15.0 5.16 0.00 0.00
20260503200249 69 340 5.0 20.0 5.16 0.00 0.00
20260503194949 68 283 6.0 13.0 5.16 0.00 0.00
20260503193649 67 297 6.0 14.0 5.16 0.00 0.00
20260503192349 67 6 6.0 13.0 5.16 0.00 0.00
20260503191049 66 285 10.0 21.0 5.16 0.00 0.00
20260503185749 66 305 6.0 12.0 5.16 0.00 0.00
20260503184449 65 271 7.0 14.0 5.16 0.00 0.00
20260503183149 66 287 6.0 12.0 5.16 0.00 0.00
20260503181849 66 284 6.0 18.0 5.16 0.00 0.00
20260503180549 65 307 9.0 17.0 5.16 0.00 0.00
20260503175249 65 290 8.0 21.0 5.16 0.00 0.00
20260503173949 65 288 8.0 19.0 5.16 0.00 0.00
20260503172649 65 288 10.0 21.0 5.16 0.00 0.00
20260503171349 65 300 8.0 21.0 5.16 0.00 0.00
20260503150348 57 264 9.0 11.0 5.16 0.00 0.00
20260503130648 45 249 6.0 6.0 5.16 0.00 0.00
20260503120148 42 250 8.0 9.0 5.16 0.00 0.00
20260503080748 49 276 7.0 10.0 5.16 0.00 0.00
20260503072848 50 255 9.0 12.0 5.16 0.00 0.00
20260503071548 47 262 7.0 9.0 5.16 0.00 0.00
20260503070248 47 256 8.0 9.0 5.16 0.00 0.00
20260503054448 49 221 8.0 9.0 5.16 0.00 0.00
20260503053148 46 208 7.0 8.0 5.16 0.00 0.00